When you browse on this site, cookies collect data to enhance your experience and personalize the content and advertising you see.
Visit our Privacy Policy to learn more. By continuing to use the site, you agree to this use of cookies and data.
  • In Portugal
  • List of Countries
  • For 7 days
  • Water Temperature
  • Satellite Maps
  • Weather Map
  • Weather Widgets
  • user-avatar
    Login

    Hourly Weather Lezhe

    Today, 22 March, Friday

    Time Temperature Precipitation Wind Pressure Humidity
    00:00 +10°C° 0 mm 4 mps 746 mmHg 62%
    01:00 +8°C° 0 mm 4 mps 746 mmHg 61%
    02:00 +8°C° 0 mm 4 mps 746 mmHg 62%
    03:00 +8°C° 0 mm 4 mps 746 mmHg 62%
    04:00 +7°C° 0 mm 4 mps 746 mmHg 63%
    05:00 +8°C° 0 mm 4 mps 746 mmHg 62%
    06:00 +8°C° 0 mm 4 mps 746 mmHg 61%
    07:00 +10°C° 0 mm 4 mps 746 mmHg 59%
    08:00 +12°C° 0 mm 4 mps 745 mmHg 53%
    09:00 +14°C° 0 mm 4 mps 745 mmHg 47%
    10:00 +17°C° 0 mm 4 mps 745 mmHg 41%
    11:00 +18°C° 0 mm 4 mps 745 mmHg 38%
    12:00 +19°C° 0 mm 4 mps 744 mmHg 36%
    13:00 +19°C° 0 mm 3 mps 744 mmHg 32%
    14:00 +19°C° 0 mm 4 mps 743 mmHg 32%
    15:00 +19°C° 0 mm 4 mps 743 mmHg 32%
    16:00 +19°C° 0 mm 4 mps 743 mmHg 32%
    17:00 +17°C° 0 mm 4 mps 743 mmHg 36%
    18:00 +14°C° 0 mm 3 mps 743 mmHg 40%
    19:00 +13°C° 0 mm 3 mps 743 mmHg 44%
    20:00 +12°C° 0 mm 3 mps 743 mmHg 45%
    21:00 +11°C° 0 mm 3 mps 743 mmHg 45%
    22:00 +11°C° 0 mm 3 mps 743 mmHg 46%
    23:00 +10°C° 0 mm 3 mps 743 mmHg 48%

    Tomorrow, 23 March, Saturday

    Time Temperature Precipitation Wind Pressure Humidity
    00:00 +10°C° 0 mm 3 mps 743 mmHg 49%
    01:00 +10°C° 0 mm 3 mps 743 mmHg 50%
    02:00 +9°C° 0 mm 3 mps 743 mmHg 51%
    03:00 +9°C° 0 mm 3 mps 743 mmHg 53%
    04:00 +9°C° 0 mm 3 mps 743 mmHg 54%
    05:00 +9°C° 0 mm 3 mps 743 mmHg 54%
    06:00 +10°C° 0 mm 3 mps 743 mmHg 54%
    07:00 +10°C° 0 mm 3 mps 743 mmHg 55%
    08:00 +12°C° 0 mm 3 mps 742 mmHg 49%
    09:00 +16°C° 0 mm 3 mps 742 mmHg 43%
    10:00 +18°C° 0 mm 3 mps 742 mmHg 38%
    11:00 +19°C° 0 mm 3 mps 742 mmHg 36%
    12:00 +20°C° 0 mm 3 mps 742 mmHg 34%
    13:00 +21°C° 0 mm 3 mps 741 mmHg 32%
    14:00 +21°C° 0 mm 3 mps 741 mmHg 34%
    15:00 +20°C° 0 mm 3 mps 741 mmHg 36%
    16:00 +20°C° 0 mm 4 mps 741 mmHg 38%
    17:00 +19°C° 0 mm 3 mps 741 mmHg 44%
    18:00 +17°C° 0 mm 3 mps 741 mmHg 50%
    19:00 +14°C° 0 mm 3 mps 741 mmHg 56%
    20:00 +14°C° 0 mm 3 mps 741 mmHg 58%
    21:00 +13°C° 0 mm 3 mps 741 mmHg 60%
    22:00 +12°C° 0 mm 3 mps 742 mmHg 61%
    23:00 +12°C° 0 mm 3 mps 742 mmHg 64%

    Day after tomorrow, 24 March, Sunday

    Time Temperature Precipitation Wind Pressure Humidity
    00:00 +12°C° 0 mm 3 mps 742 mmHg 67%
    01:00 +11°C° 0 mm 3 mps 742 mmHg 70%
    02:00 +11°C° 0 mm 3 mps 742 mmHg 71%
    03:00 +10°C° 0 mm 3 mps 742 mmHg 73%
    04:00 +10°C° 0 mm 3 mps 741 mmHg 74%
    05:00 +10°C° 0 mm 3 mps 741 mmHg 71%
    06:00 +11°C° 0 mm 3 mps 742 mmHg 68%
    07:00 +11°C° 0 mm 3 mps 742 mmHg 65%
    08:00 +13°C° 0 mm 3 mps 742 mmHg 55%
    09:00 +17°C° 0 mm 3 mps 742 mmHg 45%
    10:00 +19°C° 0 mm 2 mps 741 mmHg 35%
    11:00 +20°C° 0 mm 2 mps 741 mmHg 33%
    12:00 +21°C° 0 mm 2 mps 741 mmHg 30%
    13:00 +23°C° 0 mm 2 mps 741 mmHg 28%
    14:00 +21°C° 0 mm 2 mps 740 mmHg 30%
    15:00 +21°C° 0 mm 3 mps 740 mmHg 33%
    16:00 +20°C° 0 mm 3 mps 740 mmHg 35%
    17:00 +18°C° 0 mm 3 mps 740 mmHg 43%
    18:00 +16°C° 0 mm 2 mps 740 mmHg 50%
    19:00 +14°C° 0 mm 1 mps 740 mmHg 58%
    20:00 +14°C° 0 mm 1 mps 740 mmHg 57%
    21:00 +14°C° 0 mm 1 mps 740 mmHg 56%
    22:00 +13°C° 0 mm 1 mps 740 mmHg 55%
    23:00 +13°C° 0 mm 1 mps 740 mmHg 56%

    25 March, Monday

    Time Temperature Precipitation Wind Pressure Humidity
    00:00 +12°C° 0 mm 1 mps 740 mmHg 56%
    01:00 +12°C° 0 mm 1 mps 740 mmHg 56%
    02:00 +12°C° 0 mm 1 mps 739 mmHg 57%
    03:00 +11°C° 0 mm 1 mps 739 mmHg 58%
    04:00 +11°C° 0 mm 1 mps 739 mmHg 59%
    05:00 +12°C° 0 mm 1 mps 739 mmHg 58%
    06:00 +12°C° 0 mm 1 mps 739 mmHg 58%
    07:00 +13°C° 0 mm 1 mps 739 mmHg 57%
    08:00 +15°C° 0 mm 1 mps 739 mmHg 53%
    09:00 +16°C° 0 mm 1 mps 738 mmHg 49%
    10:00 +19°C° 0 mm 1 mps 738 mmHg 45%
    11:00 +18°C° 0 mm 2 mps 738 mmHg 44%
    12:00 +19°C° 0 mm 2 mps 737 mmHg 44%
    13:00 +19°C° 0 mm 3 mps 737 mmHg 44%
    14:00 +19°C° 0 mm 2 mps 736 mmHg 47%
    15:00 +18°C° 0 mm 2 mps 736 mmHg 49%
    16:00 +17°C° 0 mm 2 mps 735 mmHg 52%
    17:00 +16°C° 0 mm 2 mps 735 mmHg 61%
    18:00 +14°C° 0 mm 1 mps 735 mmHg 69%
    19:00 +11°C° 0 mm 0 mps 735 mmHg 77%
    20:00 +11°C° 0 mm 0 mps 735 mmHg 78%
    21:00 +11°C° 0 mm 1 mps 735 mmHg 79%
    22:00 +11°C° 0 mm 1 mps 735 mmHg 80%
    23:00 +11°C° 0 mm 1 mps 735 mmHg 80%

    26 March, Tuesday

    Time Temperature Precipitation Wind Pressure Humidity
    00:00 +10°C° 0 mm 1 mps 735 mmHg 80%
    01:00 +10°C° 0 mm 1 mps 735 mmHg 80%
    02:00 +10°C° 0 mm 1 mps 735 mmHg 80%
    03:00 +10°C° 0 mm 1 mps 735 mmHg 79%
    04:00 +9°C° 0 mm 1 mps 735 mmHg 79%
    05:00 +9°C° 0 mm 2 mps 735 mmHg 75%
    06:00 +9°C° 0 mm 3 mps 736 mmHg 70%
    07:00 +10°C° 0 mm 3 mps 736 mmHg 66%
    08:00 +11°C° 0 mm 4 mps 736 mmHg 59%
    09:00 +12°C° 0 mm 4 mps 736 mmHg 52%
    10:00 +14°C° 0 mm 5 mps 737 mmHg 45%
    11:00 +13°C° 0 mm 5 mps 737 mmHg 45%
    12:00 +11°C° 0 mm 6 mps 737 mmHg 45%
    13:00 +11°C° 0 mm 7 mps 736 mmHg 45%
    14:00 +9°C° 0.4 mm 7 mps 736 mmHg 51%
    15:00 +8°C° 0.4 mm 7 mps 736 mmHg 58%
    16:00 +5°C° 0.4 mm 7 mps 736 mmHg 64%
    17:00 +4°C° 0.2 mm 8 mps 736 mmHg 63%
    18:00 +3°C° 0.2 mm 9 mps 737 mmHg 63%
    19:00 +3°C° 0.2 mm 9 mps 737 mmHg 63%
    20:00 +3°C° 0.1 mm 10 mps 737 mmHg 61%
    21:00 +3°C° 0.1 mm 10 mps 737 mmHg 60%
    22:00 +3°C° 0.1 mm 10 mps 738 mmHg 58%
    23:00 +3°C° 0 mm 10 mps 738 mmHg 56%

    27 March, Wednesday

    Time Temperature Precipitation Wind Pressure Humidity
    00:00 +3°C° 0 mm 10 mps 738 mmHg 55%
    01:00 +2°C° 0 mm 9 mps 738 mmHg 53%
    02:00 +2°C° 0 mm 8 mps 738 mmHg 54%
    03:00 +2°C° 0 mm 8 mps 738 mmHg 55%
    04:00 +3°C° 0 mm 7 mps 738 mmHg 56%
    05:00 +3°C° 0 mm 7 mps 739 mmHg 55%
    06:00 +3°C° 0 mm 7 mps 739 mmHg 54%
    07:00 +4°C° 0 mm 7 mps 740 mmHg 53%
    08:00 +5°C° 0 mm 7 mps 740 mmHg 50%
    09:00 +6°C° 0 mm 7 mps 740 mmHg 47%
    10:00 +8°C° 0 mm 7 mps 741 mmHg 43%
    11:00 +9°C° 0 mm 7 mps 741 mmHg 42%
    12:00 +10°C° 0 mm 7 mps 740 mmHg 41%
    13:00 +11°C° 0 mm 7 mps 740 mmHg 40%
    14:00 +11°C° 0 mm 7 mps 741 mmHg 41%
    15:00 +10°C° 0 mm 7 mps 741 mmHg 41%
    16:00 +10°C° 0 mm 7 mps 741 mmHg 41%
    17:00 +9°C° 0 mm 6 mps 741 mmHg 45%
    18:00 +8°C° 0 mm 6 mps 742 mmHg 48%
    19:00 +5°C° 0 mm 6 mps 742 mmHg 52%
    20:00 +5°C° 0 mm 6 mps 743 mmHg 51%
    21:00 +5°C° 0 mm 5 mps 743 mmHg 50%
    22:00 +5°C° 0 mm 5 mps 743 mmHg 48%
    23:00 +3°C° 0 mm 5 mps 743 mmHg 48%
    Show more